| time (UTC) | temp F | wind direction | speed knots | gust knots | rain 1hr in | rain 24hr in | rain mn in | humidity % | barometer mb |
| 20260504214522 | 79 | 17 | 0.0 | 4.3 | 0.00 | 0.00 | 0.00 | 38 | 1012.5 |
| 20260504213029 | 78 | 198 | 0.9 | 4.3 | 0.00 | 0.00 | 0.00 | 38 | 1012.8 |
| 20260504211534 | 78 | 206 | 1.7 | 2.6 | 0.00 | 0.00 | 0.00 | 36 | 1012.8 |
| 20260504210023 | 78 | 307 | 0.9 | 4.3 | 0.00 | 0.00 | 0.00 | 39 | 1012.9 |
| 20260504204520 | 78 | 168 | 1.7 | 4.3 | 0.00 | 0.00 | 0.00 | 38 | 1013.1 |
| 20260504203016 | 77 | 234 | 1.7 | 6.1 | 0.00 | 0.00 | 0.00 | 39 | 1013.2 |
| 20260504201521 | 77 | 238 | 0.9 | 4.3 | 0.00 | 0.00 | 0.00 | 41 | 1013.5 |
| 20260504200009 | 77 | 315 | 2.6 | 7.0 | 0.00 | 0.00 | 0.00 | 40 | 1013.6 |
| 20260504194527 | 77 | 251 | 2.6 | 5.2 | 0.00 | 0.00 | 0.00 | 40 | 1014.0 |
| 20260504193024 | 76 | 1 | 0.9 | 7.0 | 0.00 | 0.00 | 0.00 | 40 | 1014.3 |
| 20260504191522 | 76 | 314 | 1.7 | 4.3 | 0.00 | 0.00 | 0.00 | 41 | 1014.6 |
| 20260504190020 | 76 | 162 | 1.7 | 6.1 | 0.00 | 0.00 | 0.00 | 42 | 1014.9 |
| 20260504184533 | 75 | 308 | 1.7 | 7.0 | 0.00 | 0.00 | 0.00 | 41 | 1015.2 |
| 20260504183012 | 73 | 321 | 0.0 | 2.6 | 0.00 | 0.00 | 0.00 | 43 | 1015.3 |
| 20260504181523 | 73 | 260 | 1.7 | 3.5 | 0.00 | 0.00 | 0.00 | 42 | 1015.6 |
| 20260504180025 | 72 | 284 | 0.9 | 4.3 | 0.00 | 0.00 | 0.00 | 41 | 1015.6 |
| 20260504174524 | 72 | 352 | 0.9 | 6.1 | 0.00 | 0.00 | 0.00 | 41 | 1015.8 |
| 20260504173023 | 71 | 176 | 0.9 | 1.7 | 0.00 | 0.00 | 0.00 | 41 | 1015.8 |
| 20260504171523 | 70 | 215 | 2.6 | 6.1 | 0.00 | 0.00 | 0.00 | 43 | 1015.9 |
| 20260504081515 | 39 | 158 | 0.0 | 1.7 | 0.00 | 0.00 | 0.00 | 85 | 1017.8 |
| 20260504044522 | 44 | 97 | 0.0 | 1.7 | 0.00 | 0.00 | 0.00 | 77 | 1017.8 |
| 20260504043020 | 44 | 63 | 0.0 | 1.7 | 0.00 | 0.00 | 0.00 | 75 | 1017.7 |
| 20260504041531 | 44 | 130 | 0.0 | 1.7 | 0.00 | 0.00 | 0.00 | 75 | 1017.6 |
| 20260504040024 | 45 | 135 | 0.0 | 1.7 | 0.00 | 0.00 | 0.00 | 74 | 1017.8 |
| 20260504034523 | 45 | 120 | 0.0 | 1.7 | 0.00 | 0.00 | 0.00 | 74 | 1017.5 |
| 20260504033024 | 45 | 91 | 0.0 | 1.7 | 0.00 | 0.00 | 0.00 | 73 | 1017.5 |
| 20260504031525 | 45 | 131 | 0.0 | 1.7 | 0.00 | 0.00 | 0.00 | 73 | 1017.5 |
| 20260504030022 | 46 | 131 | 0.0 | 0.0 | 0.00 | 0.00 | 0.00 | 70 | 1017.4 |
| 20260504024526 | 47 | 131 | 0.0 | 1.7 | 0.00 | 0.00 | 0.00 | 68 | 1017.4 |
| 20260504023026 | 47 | 117 | 0.9 | 1.7 | 0.00 | 0.00 | 0.00 | 67 | 1017.4 |
| 20260504021526 | 48 | 146 | 0.0 | 0.0 | 0.00 | 0.00 | 0.00 | 65 | 1017.3 |
| 20260504020024 | 49 | 179 | 0.0 | 1.7 | 0.00 | 0.00 | 0.00 | 62 | 1017.4 |
| 20260504014528 | 49 | 203 | 0.0 | 0.0 | 0.00 | 0.00 | 0.00 | 59 | 1017.4 |
| 20260504013025 | 50 | 203 | 0.0 | 1.7 | 0.00 | 0.00 | 0.00 | 57 | 1017.1 |
| 20260504011526 | 51 | 201 | 0.0 | 0.9 | 0.00 | 0.00 | 0.00 | 55 | 1016.9 |
| 20260504010026 | 53 | 201 | 0.0 | 1.7 | 0.00 | 0.00 | 0.00 | 52 | 1016.8 |
| 20260504004529 | 54 | 201 | 0.0 | 0.0 | 0.00 | 0.00 | 0.00 | 49 | 1016.4 |
| 20260504003029 | 56 | 201 | 0.0 | 1.7 | 0.00 | 0.00 | 0.00 | 47 | 1016.2 |
| 20260504001531 | 57 | 215 | 0.0 | 1.7 | 0.00 | 0.00 | 0.00 | 44 | 1016.2 |
| 20260504000006 | 59 | 229 | 0.0 | 1.7 | 0.00 | 0.00 | 0.00 | 40 | 1016.1 |
| 20260503234503 | 60 | 243 | 0.0 | 3.5 | 0.00 | 0.00 | 0.00 | 37 | 1016.2 |
| 20260503233011 | 62 | 289 | 0.9 | 4.3 | 0.00 | 0.00 | 0.00 | 34 | 1016.2 |
| 20260503231520 | 63 | 229 | 0.9 | 4.3 | 0.00 | 0.00 | 0.00 | 34 | 1016.1 |
| 20260503230014 | 63 | 1 | 1.7 | 7.0 | 0.00 | 0.00 | 0.00 | 32 | 1016.2 |
| 20260503224513 | 64 | 340 | 0.9 | 3.5 | 0.00 | 0.00 | 0.00 | 31 | 1016.4 |
| 20260503223010 | 65 | 258 | 1.7 | 5.2 | 0.00 | 0.00 | 0.00 | 30 | 1016.6 |
| 20260503221508 | 65 | 91 | 1.7 | 7.0 | 0.00 | 0.00 | 0.00 | 30 | 1016.6 |
| 20260503220004 | 66 | 155 | 0.9 | 4.3 | 0.00 | 0.00 | 0.00 | 30 | 1016.7 |